Regional Weather Roundup
Issued by NWS Upton, NY

Current Version | Previous Version | Text Only | Print | Product List | Glossary On
Versions: 1 2 3 4 5 6 7 8 9 10 11 12 13 14 15 16 17 18 19 20 21 22 23 24 25 26 27
000
ASUS41 KOKX 181305
RWROKX

Regional Weather Roundup
National Weather Service New York NY
900 AM EDT WED APR 18 2018

Note: "FAIR" indicates few or no clouds below 12,000 feet with no
significant weather and/or obstructions to visibility.

NYZ071-072-176-178-NJZ106-104-181400-
New York City Metro Area

CITY           SKY/WX    TMP DP  RH WIND       PRES   REMARKS
Central Park   CLOUDY    40  25  55 W13G24    29.83R WCI  32
Bronx Bot Gard   N/A     39  25  56 W6        29.80  WCI  35
Bronx Lehman C   N/A     39  27  60 W10         N/A  WCI  32
LaGuardia Arpt CLOUDY    42  25  50 SW15      29.81R
Queens College   N/A     39  27  60 W16         N/A  WCI  30
Kennedy Intl   PTSUNNY   41  27  57 W17G26    29.83R
Breezy Point     N/A     39 N/A N/A W14G24      N/A  WCI  31
Brooklyn Coll    N/A     39  27  60 SW15        N/A  WCI  31
Staten Island    N/A     39  27  60 W14         N/A  WCI  31
Newark/Liberty PTSUNNY   42  26  53 W16       29.82R
Teterboro      CLOUDY    41  26  55 W10       29.80R
$$

NYZ177-179-078>081-181400-
Long Island New York

CITY           SKY/WX    TMP DP  RH WIND       PRES   REMARKS
Jones Beach      N/A     39 N/A N/A W16G23      N/A  WCI  30
Wantagh          N/A     41  28  60 W16         N/A
Hempstead        N/A     41  28  60 SW12      29.84
Matinecock Pt    N/A     39 N/A N/A W23         N/A  WCI  29
Farmingdale    CLOUDY    40  25  55 W16G23    29.80S WCI  31
MacArthur/ISP  CLOUDY    42  26  53 W17G25    29.78S
Stony Brook      N/A     39  27  60 W9          N/A  WCI  33
Shirley        CLOUDY    41  27  57 W17G24    29.79R
Mt Sinai Harb    N/A     41 N/A N/A W12G20      N/A
Westhampton    PTSUNNY   42  26  53 W14G25    29.79R
East Hampton   PTSUNNY   41  27  57 W14       29.76S
Southold         N/A     41  30  65 W8G20       N/A
Montauk          N/A     42  29  59 W14G22    29.76R
$$

NYZ052-065-067-181400-
Hudson Valley

CITY           SKY/WX    TMP DP  RH WIND       PRES   REMARKS
White Plains   PTSUNNY   38  24  57 W12G18    29.77R WCI  30
Larchmont Harb   N/A     39 N/A N/A SW17        N/A  WCI  30
Croton On Huds   N/A     39 N/A N/A S13         N/A  WCI  32
Somers           N/A     36  28  75 W6          N/A  WCI  31
Brewster         N/A     37  28  70 W8          N/A  WCI  31
Newburgh       CLOUDY    37  30  75 W12       29.77R WCI  30
Montgomery     CLOUDY    38  28  67 W10       29.76R WCI  31
Otisville        N/A     36  28  75 W8          N/A  WCI  29
Warwick          N/A     37  28  70 W13         N/A  WCI  29
Suffern          N/A     37  27  65 W6          N/A  WCI  33
Poughkeepsie   CLOUDY    39  27  62 SW12G20   29.75R WCI  32
Albany         PTSUNNY   39  27  62 W17G24    29.70S WCI  30
$$

NJZ001-105-106-008-010-013-015-019>022-104-181400-
New Jersey

CITY           SKY/WX    TMP DP  RH WIND       PRES   REMARKS
Newark/Liberty PTSUNNY   42  26  53 W16       29.82R
Teterboro      CLOUDY    41  26  55 W10       29.80R
Caldwell       CLOUDY    40  25  55 W10G23    29.81R WCI  33
Somerville     PTSUNNY   41  28  60 W8        29.82R
Linden         PTSUNNY   41  26  53 W13G18    29.83S
Perth Amboy      N/A     39 N/A N/A W21G26      N/A  WCI  29
Sussex         CLOUDY    39  27  62 W8        29.79R WCI  33
Andover          N/A     38  26  62 VRB5G17   29.80R WCI  34
Trenton        PTSUNNY   41  26  55 W14G20    29.85S
Millville      FAIR      42  26  53 W13       29.91F
Atlantic City  FAIR      44  26  49 W15G23    29.90S
Wrightstown    FAIR      44  26  49 W15G25    29.85
Toms River     FAIR      43  26  51 W14G23    29.87S
Belmar         CLOUDY    40  25  55 W15G22    29.85S WCI  32
$$

PAZ047>061-062-071-181400-
Eastern Pennsylvania

CITY           SKY/WX    TMP DP  RH WIND       PRES   REMARKS
Philadelphia   FAIR      41  25  53 W20       29.91R
Allentown      PTSUNNY   41  26  55 W15G21    29.84R
Scranton       CLOUDY    36  28  73 SW8       29.80R WCI  30
$$

CTZ002-004>006-009-010-012-RIZ004-006-007-MAZ004-011-015-181400-
Southern New England

 In CT

CITY           SKY/WX    TMP DP  RH WIND       PRES   REMARKS
Bradley Intl   PTSUNNY   37  25  61 SW10      29.72R WCI  30
Hartford       CLOUDY    38  26  62 SW8       29.74R WCI  32
Danbury        PTSUNNY   37  27  67 W8        29.76R WCI  31
Wtrbury/Oxford FAIR      36  26  67 W8        29.72S WCI  30
Norwalk Harbor   N/A     37 N/A N/A SW15        N/A  WCI  28
Bridgeport     FAIR      42  27  55 W18G24    29.76R
Meriden        CLOUDY    38  26  62 SW10G20   29.75R WCI  31
New Haven      FAIR      42  27  55 W9        29.75S
Chester        CLOUDY    39  25  56 W10G18    29.73S WCI  32
Groton         PTSUNNY   42  27  55 W14       29.74S
Willimantic    CLOUDY    37  25  61 W10G18    29.72S WCI  30

 In RI

CITY           SKY/WX    TMP DP  RH WIND       PRES   REMARKS
Providence     PTSUNNY   38  29  70 W8G22     29.71S WCI  32
Block Island   FAIR      40  26  57 W17G28    29.75R WCI  31
Westerly       PTSUNNY   41  25  53 W9G21     29.74S

In MA

CITY           SKY/WX    TMP DP  RH WIND       PRES   REMARKS
Boston         FAIR      40  25  55 W17G26    29.65S WCI  31
Worcester      PTSUNNY   35  23  61 W17G28    29.62S WCI  25
Westfield      CLOUDY    38  27  64 S7        29.69S WCI  33
Provincetown   FAIR      40  28  62 W16G24    29.67S WCI  31
Nantucket      FAIR      40  28  62 W18G31    29.71R WCI  31
$$

ANZ330-335-338-340-345-350-353-355-181400-
Coastal Marine Observations


STATION/POSITION TIME  SKY/WX   TEMP    WIND        PRES    VSBY  WAVE
                                AIR SEA DIR/SP/G                  HT/PER
                 (UTC)          (F)     (DEG/KT/KT) (MB)    (MI)  (FT/S)
NY Harb Entrance 1250            40 44  250/ 17/ 21 1010.2          4/ 4
20 S Fire Island 1250            40 42  260/ 21/ 25 1009.5          6/ 5
23 SSW Montauk P 1250            40 42  260/ 19/ 25 1008.1          5/ 7
15 E Barnegat Li 1230               44                N/A           4/10
Hudson Canyon    1250            41 44  280/ 19/ 23 1010.4          7/ 6
Kings Point      1230            39 43  300/ 12/ 17 1009.9
Execution Rocks  NOT AVBL
Western LI Sound NOT AVBL
Central LI Sound NOT AVBL
Robbins Reef     1230            39     240/ 19/ 25 1010.1
$$


>>>>>>>>>>>>>>>>>>>>>>>>>>>> KEY <<<<<<<<<<<<<<<<<<<<<<<<<<<
>                                                          <
>     SKY/WX - Sky Condition/Present Weather               <
>     TMP    - Temperature in Fahrenheit                   <
>     DP     - Dew Point in Fahrenheit                     <
>     RH     - Relative Humidity in Percent                <
>     WIND   - Direction (from) and Speed in MPH           <
>     PRES   - Mean Sea Level Pressure (inches of Hg)      <
>     WCI    - Wind Chill Index                            <
>     VSB    - Visibility in Miles                         <
>     HX     - Heat Index                                  <
>     TC     - Temperature in Celsius                      <
>     VRB    - Varibale Wind Direction                     <
>                                                          <
>>>>>>>>>>>>>>>>>>>>>>>>>>>> KEY <<<<<<<<<<<<<<<<<<<<<<<<<<<




USA.gov is the U.S. government's official web portal to all federal, state and local government web resources and services.